This is the latest recevied weather packets stored in our database for station/object F4ETJ-1. If no packets are shown the sender has not sent any weather packets the latest 10 day(s).
| Time | Temp. | Humidity | Pressure | Rain* | Wind** | Luminosity | Snow |
|---|---|---|---|---|---|---|---|
| 1777789367 | 14.44° C | 95% | 1010.5 hPa | 0 mm | - | - | - |
| 1777789006 | 14.44° C | 95% | 1010.5 hPa | 0 mm | - | - | - |
| 1777788646 | 14.44° C | 95% | 1010.4 hPa | 0 mm | - | - | - |
| 1777788286 | 14.44° C | 96% | 1010.3 hPa | 0 mm | - | - | - |
| 1777787926 | 14.44° C | 96% | 1010.3 hPa | 0 mm | - | - | - |
| 1777787565 | 14.44° C | 96% | 1010.3 hPa | 0 mm | - | - | - |
| 1777787205 | 14.44° C | 96% | 1010.2 hPa | 0 mm | - | - | - |
| 1777786844 | 13.89° C | 96% | 1010.2 hPa | 0 mm | - | - | - |
| 1777786484 | 13.89° C | 96% | 1010.1 hPa | 0 mm | - | - | - |
| 1777786124 | 13.89° C | 96% | 1010.1 hPa | 0 mm | - | - | - |
| 1777785763 | 13.89° C | 96% | 1010 hPa | 0 mm | - | - | - |
| 1777785403 | 13.89° C | 96% | 1010 hPa | 0 mm | - | - | - |
| 1777785043 | 13.89° C | 96% | 1010 hPa | 0 mm | - | - | - |
| 1777764584 | 13.89° C | 94% | 1011.5 hPa | 0.25 mm | - | - | - |
| 1777764224 | 13.89° C | 94% | 1011.5 hPa | 0.51 mm | - | - | - |
| 1777763863 | 13.89° C | 94% | 1011.6 hPa | 0.51 mm | - | - | - |
| 1777763503 | 13.89° C | 94% | 1011.5 hPa | 0.76 mm | - | - | - |
| 1777763142 | 13.89° C | 94% | 1011.5 hPa | 0.76 mm | - | - | - |
| 1777762782 | 13.89° C | 94% | 1011.4 hPa | 1.02 mm | - | - | - |
| 1777762422 | 13.89° C | 94% | 1011.6 hPa | 1.52 mm | - | - | - |
| 1777762061 | 13.89° C | 94% | 1011.5 hPa | 1.78 mm | - | - | - |
| 1777761701 | 13.89° C | 94% | 1011.6 hPa | 1.78 mm | - | - | - |
| 1777761341 | 13.89° C | 94% | 1011.6 hPa | 1.78 mm | - | - | - |
| 1777760980 | 13.89° C | 94% | 1011.8 hPa | 2.03 mm | - | - | - |
| 1777760620 | 13.89° C | 94% | 1011.9 hPa | 1.78 mm | - | - | - |
* Rain latest hour (hover to see other rain measurements)
** Current wind speed in m/s (hover to see current wind gust speed)